Location: Tel Aviv
(32.0670°N, 34.7670°E)
Time: 01:33:45
(UTC+03:00)

Oscar 11 - Visible Passes

Search period start: 10 September 2024 00:00
Search period end: 20 September 2024 00:00
Orbit: 600 x 612 km, 97.7° (Epoch: 08 September)

Date Brightness Start Highest point End Pass type
(mag) Time Alt. Az. Time Alt. Az. Time Alt. Az.
10 Sep 8.4 03:53:33 10° NNE 03:56:49 36° ENE 03:56:49 36° ENE visible
10 Sep 8.8 05:30:55 10° NW 05:32:58 13° WNW 05:33:41 13° W visible
11 Sep 7.8 04:06:23 10° NNE 04:09:54 51° ENE 04:09:54 51° ENE visible
12 Sep 7.2 04:19:19 10° NNE 04:22:56 65° NNE 04:22:56 65° NNE visible
13 Sep 7.2 04:32:20 10° N 04:35:59 57° NW 04:35:59 57° NW visible
14 Sep 7.5 04:45:28 10° N 04:49:01 41° NW 04:49:01 41° NW visible
15 Sep 9.9 03:23:50 10° NE 03:25:10 14° ENE 03:25:10 14° ENE visible
15 Sep 7.9 04:58:41 10° NNW 05:02:02 29° WNW 05:02:02 29° WNW visible
16 Sep 9.5 03:36:09 10° NE 03:38:10 20° ENE 03:38:10 20° ENE visible
16 Sep 8.3 05:12:02 10° NNW 05:15:02 21° WNW 05:15:02 21° WNW visible
17 Sep 9.0 03:48:43 10° NNE 03:51:09 27° ENE 03:51:09 27° ENE visible
17 Sep 8.7 05:25:39 10° NNW 05:28:01 15° WNW 05:28:01 15° WNW visible
18 Sep 8.5 04:01:25 10° NNE 04:04:08 35° NE 04:04:08 35° NE visible
18 Sep 9.0 05:40:01 10° NW 05:40:52 11° WNW 05:41:00 10° WNW visible
19 Sep 8.0 04:14:14 10° NNE 04:17:05 42° NNE 04:17:05 42° NNE visible
